Weather History for KILM - September, 2013

Change the Weather History Date:

Tuesday, September 24, 2013

  Actual Average Record
Temperature  
Mean Temperature 65 °F 72 °F  
Max Temperature 77 °F 82 °F 93 °F (1931)
Min Temperature 53 °F 63 °F 44 °F (1981)
Degree Days  
Heating Degree Days 0 0  
Month to date heating degree days 0 0  
Since 1 July heating degree days 0 0  
Cooling Degree Days 0 8  
Month to date cooling degree days 254 255  
Year to date cooling degree days 1744 1878  
Growing Degree Days 15 (Base 50)    
Moisture  
Dew Point 54 °F    
Average Humidity 68    
Maximum Humidity 93    
Minimum Humidity 43    
Precipitation  
Precipitation 0.00 in 0.26 in 3.43 in (1947)
Month to date precipitation 1.03 6.40  
Year to date precipitation 43.52 45.37  
Sea Level Pressure  
Sea Level Pressure 30.03 in    
Wind  
Wind Speed 4 mph (NE)    
Max Wind Speed 13 mph    
Max Gust Speed 20 mph    
Visibility 10 miles    
Events      
T = Trace of Precipitation, MM = Missing Value Source: NWS Daily Summary

Daily Weather History Graph

Daily Weather History Graph

Search for Another Location

Airport or City:

Trip Planner

Search our weather history database for the weather conditions in past years. The results will help you decide how hot, cold, wet, or windy it might be!

Date:

Astronomy

Sep. 24, 2013 Rise Set
Actual Time 7:01 AM EDT 7:05 PM EDT
Civil Twilight 6:36 AM EDT 7:30 PM EDT
Nautical Twilight 6:07 AM EDT 7:59 PM EDT
Astronomical Twilight 5:37 AM EDT 8:28 PM EDT
Moon 10:34 PM EDT (9/24) 12:00 PM EDT (9/24)
Length of Visible Light 12h 54m
Length of Day
12h 03m
Waning Gibbous, 73% of the Moon is Illuminated
Sep 24
Waning Gibbous
Sep 26
Last Quarter
Oct 4
New
Oct 11
First Quarter
Oct 18
Full

Hourly Weather History & Observations

Time (EDT) Temp. Dew Point Humidity Pressure Visibility Wind Dir Wind Speed Gust Speed Precip Events Conditions
12:53 AM 59.0 °F 55.9 °F 90% 30.07 in 10.0 mi Calm Calm - N/A   Overcast
1:53 AM 57.9 °F 55.0 °F 90% 30.07 in 10.0 mi Calm Calm - N/A   Overcast
2:53 AM 57.9 °F 54.0 °F 87% 30.06 in 10.0 mi Calm Calm - N/A   Mostly Cloudy
3:53 AM 57.9 °F 54.0 °F 87% 30.06 in 10.0 mi Calm Calm - N/A   Overcast
4:53 AM 55.0 °F 52.0 °F 89% 30.06 in 10.0 mi NE 4.6 mph - N/A   Clear
5:53 AM 55.0 °F 51.1 °F 86% 30.06 in 10.0 mi NNE 4.6 mph - N/A   Clear
6:53 AM 54.0 °F 50.0 °F 86% 30.08 in 10.0 mi NNE 5.8 mph - N/A   Clear
7:53 AM 57.9 °F 53.1 °F 84% 30.09 in 10.0 mi Calm Calm - N/A   Clear
8:53 AM 66.9 °F 55.9 °F 68% 30.09 in 10.0 mi NNE 3.5 mph - N/A   Clear
9:53 AM 69.1 °F 54.0 °F 58% 30.10 in 10.0 mi NNE 6.9 mph - N/A   Clear
10:53 AM 71.1 °F 51.1 °F 49% 30.10 in 10.0 mi ENE 8.1 mph - N/A   Clear
11:53 AM 73.9 °F 52.0 °F 46% 30.08 in 10.0 mi NNE 10.4 mph - N/A   Clear
12:53 PM 75.0 °F 53.1 °F 46% 30.05 in 10.0 mi Variable 4.6 mph - N/A   Clear
1:53 PM 75.9 °F 53.1 °F 45% 30.03 in 10.0 mi North 9.2 mph - N/A   Clear
2:53 PM 77.0 °F 53.1 °F 43% 30.00 in 10.0 mi North 8.1 mph - N/A   Clear
3:53 PM 73.9 °F 54.0 °F 50% 29.99 in 10.0 mi SE 4.6 mph - N/A   Clear
4:53 PM 73.0 °F 54.0 °F 51% 29.99 in 10.0 mi SSE 6.9 mph - N/A   Clear
5:53 PM 72.0 °F 55.0 °F 55% 29.98 in 10.0 mi Variable 5.8 mph - N/A   Clear
6:53 PM 69.1 °F 55.0 °F 61% 29.98 in 10.0 mi SE 5.8 mph - N/A   Clear
7:53 PM 64.0 °F 57.0 °F 78% 29.97 in 10.0 mi Calm Calm - N/A   Clear
8:53 PM 62.1 °F 57.0 °F 84% 29.97 in 9.0 mi Calm Calm - N/A   Clear
9:53 PM 59.0 °F 55.9 °F 90% 29.96 in 8.0 mi Calm Calm - N/A   Clear
10:53 PM 59.0 °F 55.9 °F 90% 29.97 in 10.0 mi Calm Calm - N/A   Clear
11:53 PM 57.9 °F 55.9 °F 93% 29.97 in 10.0 mi Calm Calm - N/A   Clear